Home   Weather   Rio de Janeiro   Past weeks

Flag for Brazil Past Weather in Rio de Janeiro, Rio de Janeiro, Brazil — Yesterday and Last 2 Weeks

Now
73 °F

Fog.


Feels Like: 72 °F
Forecast: 71 / 78 °F
Wind: 5 mph from Northwest

Location: Rio De Janeiro Airport

Current Time: Apr 23, 2017 at 9:10:23 am

Latest Report: Apr 23, 2017 at 8:32 am


Visibility: 3 mi

Pressure: 30.09 "Hg

Humidity: 89%

Dew Point: 70 °F

Location of Rio de JaneiroLocation

Past Weather in Rio de Janeiro — Graph

°F

Rio de Janeiro Temperature Yesterday

Maximum temperature yesterday: 77 °F (at 12:00 am)
Minimum temperature yesterday: 73 °F (at 5:35 am)
Average temperature yesterday: 75 °F

High & Low Weather Summary for the Past Weeks

 TemperatureHumidityPressure
High88 °F (Apr 8, 11:00 am)100% (Apr 13, 4:00 am)30.15 "Hg (Apr 13, 4:00 am)
Low70 °F (Apr 12, 9:00 pm)49% (Apr 21, 12:00 pm)29.80 "Hg (Apr 21, 3:00 pm)
Average78 °F78%29.98 "Hg
* Reported Apr 8 7:00 am — Apr 23 7:35 am, Rio de Janeiro, Weather by CustomWeather, © 2017

Note: Actual official high and low records may vary slightly from our data, if they occured in-between our weather recording intervals... More about our weather records

Advertising

Rio de Janeiro Weather History for the Previous 24 Hours

Scroll right to see more
 ConditionsComfort  
Time TempWeatherWind HumidityBarometerVisibility
7:35 am
Sun, Apr 23
72 °FFog.6 mph94%30.07 "Hg3 mi
7:00 am72 °FDrizzle. Mostly cloudy.9 mph94%30.07 "Hg2 mi
6:00 am72 °FLight rain. Fog.6 mph94%30.04 "Hg2 mi
5:00 am72 °FRain. Fog.7 mph94%30.04 "Hg3 mi
4:00 am72 °FLight rain. Passing clouds.8 mph88%30.01 "Hg4 mi
3:00 am73 °FPassing clouds.5 mph83%30.01 "HgN/A
2:00 am73 °FPassing clouds.6 mph83%30.01 "HgN/A
1:00 am75 °FPassing clouds.5 mph74%30.01 "HgN/A
12:00 am75 °FPassing clouds.5 mph78%30.01 "HgN/A
11:00 pm
Sat, Apr 22
75 °FPassing clouds.5 mph78%30.04 "HgN/A
10:00 pm75 °FPassing clouds.2 mph74%30.04 "HgN/A
9:00 pm75 °FPassing clouds.3 mph78%30.01 "HgN/A
8:00 pm75 °FPassing clouds.2 mph83%30.01 "HgN/A
7:00 pm73 °FPassing clouds.2 mph83%29.98 "HgN/A
6:00 pm73 °FPassing clouds.2 mph89%29.98 "HgN/A
5:00 pm73 °FBroken clouds.3 mph89%29.95 "HgN/A
4:00 pm75 °FPartly sunny.7 mph89%29.92 "HgN/A
3:00 pm75 °FPartly sunny.3 mph89%29.92 "Hg6 mi
2:00 pm73 °FLight rain. Fog.7 mph89%29.92 "Hg3 mi
1:00 pm73 °FMostly cloudy.7 mph94%29.92 "Hg4 mi
12:00 pm73 °FLight rain. Fog.2 mph89%29.95 "Hg2 mi
11:20 am73 °FRain. Fog.5 mph89%29.95 "Hg2 mi
11:00 am73 °FLight rain. More clouds than sun.5 mph89%29.95 "Hg4 mi
10:00 am75 °FMore clouds than sun.8 mph78%29.95 "HgN/A
9:00 am75 °FMore clouds than sun.9 mph78%29.92 "HgN/A
Weather by CustomWeather, © 2017

See weather overviewHow to use our weather pages